User: anonymous   Login
Location: Unspecified
(0.0000°N, 0.0000°E)
Time: 04:35:24
(UTC+00:00)
Language:

RISAT 1 - Orbit

View from above orbital plane
View from above orbital plane
View from above satellite
View from above satellite

Ground track
Ground track

The orbit data is extracted from the following two-line orbital elements,

1 38248U 12017A   15090.74805694 -.00006768  00000-0 -42592-3 0  9998
2 38248 097.5621 098.7842 0002296 324.4534 153.2680 15.08911461161323
Epoch (UTC): 31 March 2015 17:57:12
Eccentricity: 0.0002296
inclination: 97.5621°
perigee height: 538 km
apogee height: 541 km
right ascension of ascending node: 98.7842°
argument of perigee: 324.4534°
revolutions per day: 15.08911461
mean anomaly at epoch: 153.2680°
orbit number at epoch: 16132

The dashed part of the orbit path shows where the satellite is in the earth's shadow,  

DLR